DateTimeUTC,F1_A11,F1_S11,BsB_S11,BsG_S11,BsR_S11,BbsB_S11,BbsG_S11,BbsR_S11,BaB_A11,BaG_A11,BaR_A11,Tu_S11,T_S11,Uu_S11,U_S11,P_S11,T1_A11
2021-08-09T03:00:00Z,00000200,20000000,,,,,,,-000.40,-000.05,-000.01,18.5,25.3,04.7,03.1,0669.8,31.1
2021-08-09T03:01:00Z,00000200,20000000,,,,,,,-000.27,-000.30,-000.39,18.5,25.3,04.5,03.0,0669.8,31.0
2021-08-09T03:02:00Z,00000200,20000000,,,,,,,-000.10,-000.21,-000.03,18.5,25.3,04.5,03.0,0669.8,31.0
2021-08-09T03:03:00Z,00000200,60000000,,,,,,,-000.34,-000.22,0000.08,18.5,25.3,04.5,03.0,0669.8,31.0
2021-08-09T03:04:00Z,00000200,40000000,0003.33,0001.68,0001.18,0000.07,0000.39,0000.67,0000.45,0000.54,0000.34,18.6,25.1,04.5,03.0,0670.7,31.0
2021-08-09T03:05:00Z,00000200,00000000,0001.99,0001.93,0000.95,-000.14,0000.36,0000.56,0000.19,0000.07,0000.44,18.6,25.1,04.5,03.1,0670.7,31.0
2021-08-09T03:06:00Z,00000200,00000000,0002.58,0001.87,0001.20,-000.81,0000.21,0000.31,0000.15,0000.19,0000.24,18.6,25.0,04.7,03.2,0670.7,31.0
2021-08-09T03:07:00Z,00000200,00000000,0001.78,0001.64,0001.14,-000.27,0000.23,0000.42,0000.14,0000.28,0000.22,18.6,25.0,04.7,03.2,0670.7,31.0
2021-08-09T03:08:00Z,00000200,00000000,0003.08,0001.60,0001.19,-000.12,0000.12,0000.31,-000.33,0000.02,0000.24,18.6,25.1,04.7,03.2,0670.7,31.0
2021-08-09T03:09:00Z,00000200,00000000,0001.84,0001.57,0000.98,-000.04,0000.08,0000.62,-000.09,-000.30,0000.10,18.7,25.1,04.6,03.1,0670.7,31.0
2021-08-09T03:10:00Z,00000200,00000000,0002.74,0001.66,0000.94,0000.26,0000.19,0000.52,0000.14,0000.04,0000.27,18.7,25.1,04.7,03.2,0670.7,31.0
2021-08-09T03:11:00Z,00000200,00000000,0003.21,0001.80,0000.94,-000.15,0000.21,0000.02,-000.20,0000.44,0000.22,18.7,25.1,04.6,03.1,0670.7,31.0
2021-08-09T03:12:00Z,00000200,00000000,0003.11,0001.80,0001.03,-000.37,0000.18,0000.25,-000.09,0000.28,0000.22,18.8,25.1,04.6,03.1,0670.7,31.0
2021-08-09T03:13:00Z,00000200,00000000,0002.41,0001.59,0000.83,0000.81,0000.26,0000.21,0000.38,-000.68,-000.09,18.8,25.1,04.6,03.1,0670.7,31.0
2021-08-09T03:14:00Z,00000200,00000000,0002.45,0001.60,0000.79,0000.06,0000.05,0000.01,-000.56,0000.34,0000.41,18.8,25.1,04.6,03.1,0670.7,31.0
2021-08-09T03:15:00Z,00000200,00000000,0002.55,0001.54,0001.18,0000.05,0000.27,0000.30,0000.44,0000.35,0000.11,18.7,25.1,04.6,03.1,0670.7,31.0
2021-08-09T03:16:00Z,00000200,00000000,0002.95,0001.39,0000.81,0000.28,0000.34,-000.03,0000.42,0000.30,0000.40,18.7,25.1,04.7,03.2,0670.7,31.0
2021-08-09T03:17:00Z,00000200,00000000,0002.19,0002.07,0001.08,-000.41,0000.09,0000.41,-000.00,0000.55,0000.53,18.7,25.1,04.8,03.2,0670.7,31.0
2021-08-09T03:18:00Z,00000200,00000000,0002.27,0001.28,0000.85,-000.19,0000.14,0000.11,0000.34,-000.18,0000.58,18.7,25.1,04.9,03.4,0670.6,31.0
2021-08-09T03:19:00Z,00000200,00000000,0002.47,0001.30,0000.82,0000.09,0000.34,0000.40,0000.39,0000.67,0000.55,18.7,25.1,05.1,03.4,0670.6,31.0
2021-08-09T03:20:00Z,00000200,00000000,0002.77,0001.34,0000.74,0000.09,0000.21,0000.29,0000.56,0000.09,0000.33,18.7,25.1,05.1,03.5,0670.6,31.0
2021-08-09T03:21:00Z,00000200,00000000,0002.91,0001.53,0000.68,0000.28,-000.23,0000.21,-000.23,0000.35,0000.44,18.7,25.1,05.2,03.5,0670.5,31.0
2021-08-09T03:22:00Z,00000200,00000000,0001.51,0001.17,0000.79,-000.08,0000.29,0000.21,-000.01,0000.19,0000.28,18.7,25.1,05.3,03.6,0670.5,31.0
2021-08-09T03:23:00Z,00000200,00000000,0002.61,0001.20,0000.42,-000.07,0000.19,0000.13,0000.26,-000.03,-000.03,18.7,25.0,05.4,03.7,0670.5,31.0
2021-08-09T03:24:00Z,00000200,00000000,0002.12,0001.44,0000.80,0000.35,0000.23,0000.35,-000.12,-000.06,0000.47,18.6,25.0,05.3,03.6,0670.5,31.0
2021-08-09T03:25:00Z,00000200,00000000,0002.22,0001.37,0000.79,0000.24,0000.05,0000.11,0000.24,-000.06,-000.12,18.6,25.0,05.3,03.6,0670.5,31.0
2021-08-09T03:26:00Z,00000200,00000000,0001.86,0001.48,0000.77,0000.13,0000.13,0000.15,0000.40,0000.51,0000.79,18.6,25.0,05.3,03.6,0670.5,31.0
2021-08-09T03:27:00Z,00000200,00000000,0002.12,0001.61,0000.60,-000.14,0000.47,0000.10,0000.36,0000.09,0000.04,18.6,25.0,05.4,03.6,0670.5,31.0
2021-08-09T03:28:00Z,00000200,00000000,0002.17,0001.27,0001.10,-000.21,0000.34,0000.25,-000.44,0000.22,0000.22,18.6,25.0,05.5,03.7,0670.5,31.0
2021-08-09T03:29:00Z,00000200,00000000,0001.53,0001.45,0000.89,0000.01,0000.33,0000.22,0000.21,-000.08,0000.19,18.6,25.0,05.5,03.7,0670.5,31.0
2021-08-09T03:30:00Z,00000200,00000000,0002.01,0000.81,0000.72,-000.17,-000.02,0000.19,0000.08,0000.29,0000.53,18.6,25.0,05.5,03.7,0670.6,31.0
2021-08-09T03:31:00Z,00000200,00000000,0002.21,0001.47,0001.14,-000.08,-000.04,0000.31,-000.06,0000.04,-000.42,18.6,25.0,05.5,03.7,0670.5,31.0
2021-08-09T03:32:00Z,00000200,00000000,0002.39,0001.10,0000.86,-000.21,0000.16,0000.46,0000.03,0000.12,0000.18,18.6,25.0,05.5,03.7,0670.5,31.0
2021-08-09T03:33:00Z,00000200,00000000,0002.67,0001.07,0001.23,0000.30,0000.09,0000.48,0000.00,0000.21,0000.66,18.6,24.9,05.5,03.8,0670.5,31.0
2021-08-09T03:34:00Z,00000200,00000000,0001.74,0001.43,0000.77,0000.09,-000.16,0000.36,-000.24,-000.29,-000.19,18.6,24.9,05.6,03.8,0670.5,31.0
2021-08-09T03:35:00Z,00000200,00000000,0002.13,0001.95,0001.03,-000.21,0000.05,0000.36,0000.48,0000.17,0000.37,18.6,24.9,05.6,03.8,0670.5,31.0
2021-08-09T03:36:00Z,00000200,00000000,0002.15,0001.41,0000.72,0000.42,0000.21,0000.35,-000.18,0000.07,0000.05,18.6,24.9,05.5,03.7,0670.6,31.0
2021-08-09T03:37:00Z,00000200,00000000,0002.65,0001.27,0000.83,0000.23,0000.47,0000.50,-000.10,-000.07,0000.18,18.5,24.9,05.6,03.8,0670.6,31.0
2021-08-09T03:38:00Z,00000200,00000000,0001.99,0001.27,0000.82,0000.14,-000.01,-000.06,0000.14,-000.21,0000.26,18.6,24.9,05.6,03.8,0670.6,31.0
2021-08-09T03:39:00Z,00000200,00000000,0002.22,0001.32,0001.16,0000.38,0000.22,0000.28,-000.30,0000.17,0000.08,18.6,25.0,05.6,03.8,0670.5,31.0
2021-08-09T03:40:00Z,00000200,00000000,0002.18,0001.12,0001.01,-000.06,-000.06,0000.63,0000.39,0000.60,0000.50,18.6,25.0,05.6,03.8,0670.5,31.0
2021-08-09T03:41:00Z,00000200,00000000,0001.82,0001.38,0001.16,0000.26,0000.04,0000.05,-000.35,-000.67,-000.22,18.6,25.0,05.5,03.7,0670.5,31.0
2021-08-09T03:42:00Z,00000200,00000000,0002.44,0001.09,0000.81,-000.56,0000.38,0000.44,0000.15,0000.43,0000.04,18.7,25.0,05.5,03.8,0670.5,31.0
2021-08-09T03:43:00Z,00000200,00000000,0002.72,0001.26,0000.66,-000.65,0000.28,-000.01,-000.10,-000.25,0000.20,18.7,25.0,05.4,03.7,0670.5,31.0
2021-08-09T03:44:00Z,00000200,00000000,0001.78,0001.46,0000.76,-000.15,0000.25,0000.16,0000.09,-000.16,0000.03,18.7,25.0,05.4,03.7,0670.5,31.0
2021-08-09T03:45:00Z,00000200,00000000,0001.17,0001.24,0000.69,-000.46,0000.17,0000.11,-000.43,-000.13,-000.24,18.6,25.0,05.4,03.7,0670.5,31.0
2021-08-09T03:46:00Z,00000200,00000000,0002.33,0001.55,0000.82,0000.13,0000.01,0000.12,-000.06,0000.00,0000.23,18.7,25.0,05.3,03.6,0670.5,31.0
2021-08-09T03:47:00Z,00000200,00000000,0001.60,0000.99,0001.12,-000.20,-000.15,0000.47,0000.07,0000.57,0000.89,18.6,25.0,05.4,03.6,0670.5,31.0
2021-08-09T03:48:00Z,00000200,00000000,0001.89,0000.94,0000.80,0000.37,-000.20,0000.32,0000.50,0000.05,0000.06,18.6,25.0,05.4,03.7,0670.5,31.0
2021-08-09T03:49:00Z,00000200,00000000,0001.79,0001.27,0000.89,-000.58,0000.05,0000.38,-000.24,0000.47,-000.12,18.6,24.9,05.4,03.7,0670.5,31.0
2021-08-09T03:50:00Z,00000200,00000000,0002.00,0001.25,0000.85,-000.05,0000.08,0000.50,0000.33,-000.11,0000.03,18.6,24.9,05.5,03.8,0670.5,31.0
2021-08-09T03:51:00Z,00000200,00000000,0001.46,0001.40,0000.69,-000.04,0000.26,0000.27,-000.33,-000.17,0000.28,18.6,24.9,05.5,03.8,0670.5,31.0
2021-08-09T03:52:00Z,00000200,00000000,0001.48,0001.19,0000.55,0000.12,0000.02,0000.22,-000.33,0000.03,-000.12,18.6,24.9,05.5,03.7,0670.5,31.0
2021-08-09T03:53:00Z,00000200,00000000,0001.54,0001.04,0000.97,-000.06,0000.14,0000.52,0000.25,-000.04,0000.04,18.6,25.0,05.3,03.6,0670.5,31.0
2021-08-09T03:54:00Z,00000200,00000000,0001.76,0001.48,0000.70,0000.40,0000.21,0000.32,-000.31,-000.72,0000.13,18.7,25.0,05.4,03.6,0670.5,31.0
2021-08-09T03:55:00Z,00000200,00000000,0001.75,0001.07,0000.43,-000.31,0000.04,0000.10,-000.51,-000.21,-000.30,18.7,25.0,05.3,03.6,0670.5,31.0
2021-08-09T03:56:00Z,00000200,00000000,0002.35,0001.25,0000.62,-000.01,-000.02,0000.12,-000.37,0000.37,0000.09,18.7,25.0,05.1,03.5,0670.5,31.0
2021-08-09T03:57:00Z,00000200,40000000,,,,,,,0000.45,-000.16,-000.13,18.8,25.0,05.4,03.7,0670.5,31.0
2021-08-09T03:58:00Z,00000200,60000000,,,,,,,-000.54,-000.44,-000.16,18.5,25.1,04.9,03.3,0669.5,31.0
2021-08-09T03:59:00Z,00000200,20000000,,,,,,,-000.49,-000.11,-000.38,18.5,25.3,04.8,03.2,0669.5,31.0
